Evolution One Loft Race - Inventory 5/12

Station: Inventory - T Race

Distance: 10 Miles    

Release: 12-May-2018 10:55

Weather Release:    Arrival:

Wind at Release:     Wind at Arrival:

Temp at Release: °    Temp at Arrival: °

Lofts: 51

Birds: 174

Clocked: 168

Good Luck to Everyone!
Drops Pos Breeder Pigeon Name Color Sex Ent Arrival Speed To Win Eligible E25E50E100Elite
1 Radd - OK 41053-AU18-ARPU 1537/2822 R BCSP H 1 10:56:25.10 12408.931 00:00:00 Yes
2 Radd - OK 41059-AU18-ARPU 1451/118 R BB H 2 10:56:40.00 10560.000 00:00:15 Yes
3 Radd - OK 41069-AU18-ARPU 2087/5150 BB H 3 10:56:43.70 10183.221 00:00:19 Yes
4 Radd - OK 41054-AU18-ARPU MC1 BC H 4 10:56:50.30 9573.889 00:00:25 Yes
5 Radd - OK 41056-AU18-ARPU 1011/1144 G BC H 5 10:56:54.50 9222.707 00:00:29 Yes
6 Radd - OK 41068-AU18-ARPU 2987/5150 B BB H 6 10:56:59.40 8844.221 00:00:34 Yes
7 Double G Lofts - CO 8244-AU18-MONT BB H 1 10:57:27.30 7169.043 00:01:02 Yes
8 Ken Ashworth - UT 1919-AU18-WFA BC H 1 10:57:32.90 6906.475 00:01:08 Yes
9 High Desert Yearling Classic - ID 34306-AU18-AA BB H 1 10:57:38.00 6683.544 00:01:13 Yes
10 Chumbley Loft - UT 5555-AU18-OGN BB H 1 10:57:42.70 6490.473 00:01:18 Missing
11 Morfin Loft - ID 0437-AU18-IDA BC H 1 10:57:46.70 6334.733 00:01:22 Yes
12 Double G Lofts - CO 8245-AU18-MONT BC H 2 10:57:51.20 6168.224 00:01:26 Missing
13 Nykamp Loft - ID 8941-AU18-NYKA BC H 1 10:57:53.80 6075.949 00:01:29 Yes
14 High Desert Yearling Classic - ID 34303-AU18-AA BB H 2 10:57:57.60 5945.946 00:01:33 Yes
15 Pelican Loft - ID 1828-AU18-PELI BB H 1 10:58:00.40 5853.659 00:01:35 Missing
16 P N W Challenge - ID 0107-AU18-PNWC Pair#19 BB H 1 10:58:03.50 5754.768 00:01:38 Missing
17 High Desert Yearling Classic - ID 34301-AU18-AA BB H 3 10:58:06.30 5668.277 00:01:41 Yes
18 Ken Ashworth - UT 1920-AU18-WFA BC H 2 10:58:10.80 5534.591 00:01:46 Missing
19 Pigeondepot.Com - MN 0103-AU18-VIK DCSP H 1 10:58:14.50 5429.306 00:01:49 Missing
20 High Desert Yearling Classic - ID 34308-AU18-AA BC H 4 10:58:18.50 5319.899 00:01:53 Yes
22 Chumbley Loft - UT 5553-AU18-OGN BBSP H 2 10:58:24.40 5166.341 00:01:59 Missing
23 Morfin Loft - ID 0438-AU18-IDA BC H 2 10:58:27.50 5089.157 00:02:02 Yes
24 Chumbley Loft - UT 5522-AU18-OGN BC H 3 10:58:31.50 4992.908 00:02:06 Yes
25 Ken Ashworth - UT 1923-AU18-WFA BC H 3 10:58:35.50 4900.232 00:02:10 Yes
26 Flying D Loft - TX 0649-AU18-FLYD BC H 1 10:58:42.00 4756.757 00:02:17 Yes
27 Pigeondepot.Com - MN 0108-AU18-VIK BB H 2 10:58:46.30 4666.372 00:02:21 Yes
28 Chumbley Loft - UT 5545-AU18-OGN BB H 4 10:58:50.40 4583.333 00:02:25 Yes
29 2nd Chance Loft - ID 18100-AU18-RMR BC H 1 10:58:53.70 4518.614 00:02:29 Yes
30 Jose Rangel - UT 41177-AU18-ARPU BB H 1 10:58:58.40 4429.530 00:02:33 Yes
31 Flying D Loft - TX 0633-AU18-FLYD BB H 2 10:59:14.00 4157.480 00:02:49 Missing
32 Christopher Loft - UT 8444-AU18-GS BC H 1 10:59:36.20 3823.316 00:03:11 Yes
33 Nykamp Loft - ID 8690-AU18-NYKA BB H 2 10:59:43.40 3726.182 00:03:18 Yes
34 Rory Smith - UT 8413-AU18-CDR BB H 1 10:59:49.50 3647.668 00:03:24 Yes
35 Rory Smith - UT 8416-AU18-CDR BB H 2 10:59:58.50 3537.688 00:03:33 Yes
36 Radd - OK 41050-AU18-ARPU 2283/1814 H BB H 7 11:00:00.50 3514.143 00:03:35 Yes
37 Salvador Hernandez Loft - CA 44704-AU18-ARPU BB H 1 11:00:09.70 3409.751 00:03:45 Missing
38 Gold Country Challenge - CA 0013-AU18-HANG BB H 1 11:00:11.10 3394.407 00:03:46 Yes
39 Pelican Loft - ID 1817-AU18-PELI BBSP H 2 11:00:21.30 3286.648 00:03:56 Yes
40 Sarrett Racing Pigeons - TX 8003-AU18-PPH BB H 1 11:00:23.40 3265.306 00:03:58 Yes
41 Plymouth Peak Pro Challenge - UT 8452-AU18-HL 2472 X 0559 BC H 1 11:00:28.30 3216.570 00:04:03 Yes
42 Utaz Team - UT 0439-AU18-SLI BCSP H 1 11:00:31.00 3190.332 00:04:06 Yes
43 Rocky Mounatin Racing - UT 18322-AU18-RMR BC H 1 11:00:36.50 3138.187 00:04:11 Missing
44 Gold Country Challenge - CA 0017-AU18-HANG BBWF H 2 11:00:39.20 3113.208 00:04:14 Yes
45 Salvador Hernandez Loft - CA 44702-AU18-ARPU BBWF H 2 11:00:44.30 3067.093 00:04:19 Yes
46 Speedgoat Loft - UT 5716-AU18-OGN BB H 1 11:00:45.50 3056.440 00:04:20 Yes
47 Radd - OK 41048-AU18-ARPU 1527/1855 K BB H 8 11:00:49.90 3018.005 00:04:25 Yes
48 Gregoruk Loft - ON 2004-AU18-KEN BB H 1 11:00:56.10 2965.459 00:04:31 Yes
49 carlos martin beto's loft - CA 2000-AU18-SBRP BBWF H 1 11:00:58.00 2949.721 00:04:33 Missing
50 Whiskey Hollow Loft - TX 0303-AU18-WACO Honey Jack BB H 1 11:01:02.20 2915.516 00:04:37 Yes
51 Utaz Team - UT 0455-AU18-SLI BB H 2 11:01:13.70 2825.796 00:04:49 Yes
52 Pigeonconnection.Com - NV 1801-AU18-PYJN BB H 1 11:01:17.80 2795.130 00:04:53 Yes
53 Warbird Loft - CO 8616-AU18-FH Txbig BBWF H 1 11:01:27.20 2727.273 00:05:02 Yes
54 Sarrett Racing Pigeons - TX 8007-AU18-PPH BB H 2 11:01:30.80 2702.149 00:05:06 Missing
55 Baldwin & Tilson - NC 8098-AU18-TENT 1107 BBP H 1 11:01:52.50 2560.000 00:05:27 Yes
56 Baldwin & Tilson - NC 8064-AU18-TENT 404 BBWF C 2 11:01:54.10 2550.109 00:05:29 Yes
57 Nanez Family Lofts - WI 8180-AU18-NANE BB H 1 11:02:05.30 2482.953 00:05:40 Missing
58 Nanez Family Lofts - WI 8201-AU18-NANE BBWF H 2 11:02:07.90 2467.866 00:05:43 Missing
59 Nanez Family Lofts - WI 8207-AU18-NANE BBWF H 3 11:02:18.20 2409.859 00:05:53 Missing
61 Nanez Family Lofts - WI 8179-AU18-NANE BBWF H 4 11:02:29.90 2347.188 00:06:05 Yes
62 Freedom Flyers - UT 5818-AU18-OGN BCWF H 1 11:02:31.70 2337.835 00:06:07 Yes
63 Nanez Family Lofts - WI 8188-AU18-NANE BB H 5 11:02:42.50 2283.243 00:06:17 Yes
64 Plymouth Peak Pro Challenge - UT 8434-AU18-HL BCWF H 2 11:02:45.00 2270.968 00:06:20 Yes
65 Baldwin & Tilson - NC 8080-AU18-TENT KW-DIETER BB C 3 11:02:57.00 2213.836 00:06:32 Yes
66 Nanez Family Lofts - WI 8220-AU18-NANE BB H 6 11:02:58.50 2206.897 00:06:33 Yes
67 Baldwin & Tilson - NC 8081-AU18-TENT BB H 4 11:03:08.80 2160.393 00:06:44 Missing
68 Baldwin & Tilson - NC 8094-AU18-TENT DTB BCWF C 5 11:03:10.30 2153.783 00:06:45 Yes
69 Nanez Family Lofts - WI 8181-AU18-NANE BB H 7 11:03:20.20 2111.156 00:06:55 Yes
70 Baldwin & Tilson - NC 8065-AU18-TENT 404 BB C 6 11:03:21.60 2105.263 00:06:57 Yes
71 Plymouth Peak Pro Challenge - UT 8584-AU18-HL BB H 3 11:03:30.00 2070.588 00:07:05 Missing
72 Gregoruk Loft - ON 2000-AU18-KEN BB H 2 11:04:08.60 1924.900 00:07:43 Yes
73 Rory Smith - UT 8431-AU18-CDR BBWF H 3 11:04:10.10 1919.651 00:07:45 Missing
74 WŸŁØft - CA 18516-AU18-AA •Baroness• BB H 1 11:04:20.90 1882.689 00:07:56 Yes
75 Radd - OK 41039-AU18-ARPU 2155/1915 A BCSP H 9 11:04:22.70 1876.666 00:07:58 Yes
76 Furlano & Rotiroti - ON 4472-AU18-LAKE BB H 1 11:04:33.00 1842.932 00:08:08 Yes
77 Rory Smith - UT 8423-AU18-CDR BB H 4 11:04:34.50 1838.120 00:08:09 Yes
78 Jeff Earthman - NV 0829-AU18-EART BC H 1 11:04:45.50 1803.587 00:08:20 Yes
79 C & S Lofts - UT 5972-AU18-OGN BC H 1 11:04:46.80 1799.591 00:08:22 Missing
80 A F L - GA 0014-AU18-AFL ,,VERA 14'' BBWF H 1 11:04:58.60 1764.116 00:08:34 Yes
81 Radd - OK 41047-AU18-ARPU 1580/1743 BB H 10 11:05:00.60 1758.242 00:08:35 Yes
82 Radd - OK 41041-AU18-ARPU 41251/41232 BB H 11 11:05:13.00 1722.675 00:08:48 Yes
83 Jeff Earthman - NV 0834-AU18-EART BB H 2 11:05:16.20 1713.729 00:08:51 Missing
84 Warbird Loft - CO 8601-AU18-FH Hoopxevo BB H 2 11:05:25.90 1687.170 00:09:01 Yes
85 Steve Beier - AZ 10847-AU18-JEDD BC H 1 11:05:31.00 1673.534 00:09:06 Yes
86 Ap Amy & P Lofts - MD 11604-AU18-FOYS GRIZ H 1 11:05:42.40 1643.836 00:09:17 Missing
87 Crazy Als Lofts - CO 5208-AU18-CRAZ BC H 1 11:05:46.50 1633.411 00:09:21 Yes
88 Martinez F Loft - KS 0574-AU18-MART BC H 1 11:05:58.40 1603.888 00:09:33 Yes
89 P N W Challenge - ID 0109-AU18-PNWC Pair#7 BC H 2 11:06:02.00 1595.166 00:09:37 Yes
90 A F L - GA 0002-AU18-AFL BB H 2 11:06:11.30 1573.067 00:09:46 Yes
91 Pelican Loft - ID 1803-AU18-PELI BB H 3 11:06:14.70 1565.140 00:09:50 Yes
92 P N W Challenge - ID 0125-AU18-PNWC Pair#6 BB H 3 11:06:22.20 1547.933 00:09:57 Missing
93 Chick Clayton - ID 0801-AU18-IDA BCSP H 1 11:06:40.30 1507.925 00:10:15 Yes
94 Radd - OK 41044-AU18-ARPU 536/1962 Sv BBSP H 12 11:06:45.00 1497.872 00:10:20 Yes
95 WŸŁØft - CA 18520-AU18-AA •Herzogin• BB H 2 11:06:56.10 1474.654 00:10:31 Missing
96 Furlano & Rotiroti - ON 4563-AU18-LAKE BB H 2 11:06:57.60 1471.572 00:10:32 Yes
97 Crazy Als Lofts - CO 5220-AU18-CRAZ BC H 2 11:07:10.40 1445.783 00:10:45 Yes
- 0111-AU18-AU 11:07:12.00 1442.623
98 Radd - OK 41051-AU18-ARPU 2185/2194 W BB H 13 11:07:44.70 1380.934 00:11:20 Yes
99 C & S Lofts - UT 18220-AU18-RMR BBWF H 2 11:07:47.70 1375.537 00:11:23 Missing
100 Jeff Earthman - NV 0828-AU18-EART BC H 3 11:07:59.40 1354.888 00:11:34 Missing
101 Rocky Mounatin Racing - UT 18321-AU18-RMR BC H 2 11:08:00.90 1352.286 00:11:36 Yes

There are 168 bird records

Note: These Race Results are unofficial and subject to change until verified by the Race Committee and declared final.